Total_Precipitation_Accumulation
2.92 2.46 3.98 4.23 3.84 3.48 3.26 3.35 3.59 3.59 3.69 3.71 3.62 3.28 3.13 3.13 3.36 3.43 3.18 2.88 2.79 2.89 3.24 3.41 3.38 3.47 3.32 3.27 3.33 3.46 3.65 3.85 3.88 3.47 3.35 3.30 3.18 3.12 3.22 3.32 3.52 3.87 3.52
2.12 2.12 3.54 4.04 3.87 3.61 3.49 3.49 3.58 3.64 3.63 3.58 3.40 3.27 2.97 2.85 3.20 3.64 3.40 3.16 2.97 3.00 3.04 3.18 3.34 3.51 3.46 3.44 3.66 3.73 3.76 3.83 3.96 3.70 3.66 3.68 3.58 3.45 3.17 3.20 3.68 3.97 3.43
1.82 1.97 2.80 3.88 3.80 3.50 3.58 3.53 3.44 3.43 3.34 3.28 3.18 2.98 2.90 2.80 2.87 3.23 3.23 3.16 2.98 2.96 3.11 3.20 3.41 3.63 3.66 3.67 3.91 3.99 3.89 3.91 3.91 3.70 3.84 4.17 3.74 3.71 3.53 3.37 3.34 3.34 3.25
1.47 1.69 2.29 3.32 3.24 3.18 3.23 3.01 2.91 2.93 2.87 2.93 2.97 2.78 2.73 2.75 2.91 3.25 3.22 3.03 2.82 2.70 2.83 3.10 3.42 3.54 3.60 3.68 3.78 3.99 3.88 3.94 3.83 3.45 3.54 3.94 3.89 3.91 3.91 3.68 3.44 3.31 3.45
1.26 1.59 2.38 3.17 3.01 3.00 2.95 2.69 2.72 2.64 2.62 2.71 2.81 2.71 2.81 2.79 2.91 3.18 3.28 3.23 3.07 3.03 3.04 3.24 3.38 3.44 3.61 3.66 3.73 3.89 3.92 3.84 3.58 3.05 3.11 3.62 4.40 4.35 3.98 3.84 3.68 3.62 3.71
1.29 1.47 2.08 2.80 2.72 2.66 2.57 2.59 2.61 2.53 2.52 2.52 2.61 2.65 2.78 2.88 2.87 3.10 3.30 3.13 2.97 3.19 3.43 3.62 3.58 3.56 3.66 3.72 3.62 3.76 3.93 3.62 3.02 2.99 3.27 3.72 4.23 4.23 3.80 3.59 3.65 3.82 4.01
1.15 1.21 1.64 2.42 2.44 2.37 2.39 2.49 2.58 2.47 2.51 2.42 2.48 2.72 2.85 2.87 2.92 3.08 3.24 3.07 2.95 3.09 3.55 3.77 3.80 3.74 3.61 3.55 3.67 3.64 3.71 3.32 2.86 3.02 3.30 3.67 3.89 4.10 3.80 3.59 3.72 3.90 4.18
1.25 1.18 1.39 2.12 2.30 2.22 2.36 2.36 2.41 2.50 2.49 2.40 2.45 2.56 2.71 2.83 2.82 2.94 3.01 3.03 2.94 2.97 3.20 3.35 3.37 3.55 3.42 3.39 3.48 3.37 3.35 2.88 2.44 2.60 2.98 3.57 4.17 4.22 3.71 3.46 3.50 3.77 3.98
1.51 1.45 1.53 1.76 1.96 2.16 2.31 2.32 2.43 2.56 2.54 2.41 2.34 2.38 2.42 2.54 2.53 2.57 2.68 2.86 2.89 3.02 3.08 3.11 3.30 3.46 3.41 3.36 3.24 3.30 3.27 2.74 2.41 2.61 2.56 3.50 4.47 4.49 4.01 3.61 3.41 3.54 3.80
1.44 1.43 1.47 1.62 1.71 1.77 1.93 2.31 2.60 2.96 2.84 2.42 2.16 2.04 2.20 2.27 2.25 2.39 2.50 2.81 3.09 3.29 3.52 3.51 3.61 3.43 3.31 3.12 2.89 2.99 2.94 2.47 2.50 2.45 2.84 3.60 4.77 4.74 4.25 3.74 3.35 3.19 3.33
1.12 1.17 1.28 1.39 1.45 1.54 1.55 1.80 2.36 2.84 2.84 2.36 1.98 1.94 1.89 1.73 1.72 1.90 2.17 2.69 3.07 3.35 3.66 3.71 3.58 3.31 2.98 2.77 2.60 2.51 2.25 2.19 2.43 2.54 3.00 3.88 4.68 4.80 4.20 3.63 3.29 3.21 3.11
0.97 0.93 0.95 0.96 1.07 1.16 1.16 1.51 1.85 1.89 2.11 1.87 1.78 1.71 1.69 1.74 1.76 1.49 1.69 2.27 2.69 2.99 3.26 3.49 3.40 2.95 2.29 2.07 2.16 2.11 1.83 1.82 2.00 2.28 3.00 4.12 4.80 4.81 4.17 3.70 3.41 3.36 3.13
0.87 0.86 0.79 0.77 0.84 0.99 1.15 1.32 1.54 1.72 1.88 1.86 1.78 1.80 1.89 1.85 1.57 1.42 1.53 1.71 2.01 2.32 2.46 2.70 2.69 2.21 1.83 1.74 1.87 1.85 1.72 1.69 1.92 2.25 3.03 4.10 4.85 4.93 4.23 3.76 3.54 3.59 3.53
0.71 0.81 0.77 0.62 0.65 0.74 0.83 1.01 1.17 1.39 1.61 1.68 1.52 1.48 1.67 1.74 1.58 1.46 1.64 1.70 1.90 2.21 2.48 2.59 2.37 2.02 1.65 1.50 1.64 1.67 1.56 1.66 1.86 2.08 2.70 3.44 4.32 4.82 4.61 4.16 3.90 3.73 3.77
0.72 0.78 0.82 0.72 0.67 0.71 0.77 0.83 0.86 1.16 1.35 1.53 1.58 1.39 1.53 1.62 1.58 1.48 1.44 1.62 1.71 2.03 2.28 2.43 2.31 2.10 1.82 1.57 1.55 1.52 1.60 1.61 1.66 1.73 2.15 2.65 3.20 4.05 4.53 4.50 4.40 4.28 4.25
0.69 0.78 0.79 0.79 0.77 0.77 0.78 0.78 0.78 0.86 0.95 1.06 1.03 1.03 1.20 1.35 1.38 1.41 1.33 1.42 1.60 1.95 2.39 2.52 2.26 2.12 1.91 1.79 1.76 1.68 1.66 1.64 1.66 1.60 1.81 2.10 2.21 2.66 3.40 4.08 4.46 4.52 4.58
0.70 0.75 0.80 0.83 0.89 0.89 0.88 0.93 0.92 0.87 0.89 0.89 0.86 0.87 0.95 1.08 1.17 1.28 1.36 1.38 1.51 1.86 2.34 2.63 2.49 2.27 1.99 1.93 1.89 1.81 1.72 1.74 1.68 1.60 1.71 1.92 1.86 1.98 2.50 3.26 4.05 4.43 4.43
0.73 0.67 0.71 0.74 0.83 0.85 0.88 0.93 1.03 1.03 1.02 1.01 1.02 0.98 0.94 1.08 1.19 1.29 1.41 1.38 1.45 1.77 2.19 2.56 2.69 2.69 2.46 2.29 2.14 1.98 1.86 2.02 1.86 1.71 1.76 1.92 2.05 1.91 2.00 2.47 3.12 3.85 4.22
0.71 0.64 0.62 0.67 0.69 0.72 0.72 0.77 0.91 0.99 1.06 1.14 1.12 1.14 1.17 1.22 1.23 1.35 1.58 1.61 1.63 1.87 2.08 2.21 2.43 2.62 2.68 2.50 2.16 2.08 1.96 2.08 2.18 2.07 2.12 2.17 2.20 2.13 2.01 2.03 2.31 2.71 3.49
0.68 0.67 0.65 0.67 0.66 0.62 0.60 0.67 0.79 0.89 0.96 1.16 1.21 1.26 1.55 1.67 1.46 1.43 1.61 1.66 1.73 2.03 2.14 2.27 2.57 2.67 2.74 2.74 2.34 2.16 2.07 2.05 2.10 2.30 2.41 2.40 2.39 2.20 2.14 2.02 2.18 2.25 2.87
0.49 0.49 0.58 0.61 0.70 0.69 0.58 0.55 0.69 0.83 0.97 1.13 1.32 1.33 1.54 1.65 1.55 1.61 1.68 1.73 1.79 1.94 2.02 2.18 2.63 2.78 2.78 2.67 2.76 2.68 2.49 2.22 2.12 2.19 2.32 2.53 2.62 2.44 2.34 2.34 2.27 2.24 2.36
0.45 0.42 0.46 0.53 0.64 0.75 0.75 0.74 0.84 1.03 1.13 1.25 1.44 1.46 1.52 1.52 1.50 1.45 1.70 1.87 1.84 2.01 2.08 2.24 2.62 2.95 2.81 2.68 3.04 3.45 3.17 2.82 2.40 2.13 2.17 2.22 2.46 2.50 2.36 2.23 2.11 2.11 2.18
0.38 0.36 0.42 0.55 0.69 0.87 1.05 1.28 1.51 1.79 1.93 1.81 1.70 1.78 1.84 1.87 1.78 1.72 1.83 2.02 1.99 2.07 2.18 2.23 2.36 2.94 3.19 2.98 2.91 3.48 3.34 3.09 3.01 2.43 1.98 1.87 2.14 2.35 2.37 2.23 2.12 2.16 2.19
0.42 0.50 0.61 0.79 0.95 1.12 1.32 1.54 1.81 2.10 2.32 2.29 2.31 2.36 2.28 2.18 2.06 1.91 1.95 2.06 2.11 2.19 2.17 1.99 2.17 2.73 3.31 3.42 3.19 2.91 2.72 2.63 2.81 2.75 2.17 1.81 1.84 2.01 2.24 2.14 2.14 2.24 2.29
0.61 0.75 0.88 1.18 1.36 1.47 1.54 1.62 1.86 1.95 2.06 2.16 2.28 2.34 2.33 2.23 2.10 1.95 1.89 2.05 2.16 2.22 2.19 2.23 2.37 2.69 3.06 3.43 3.44 3.19 2.89 2.60 2.13 2.31 2.38 2.15 1.83 1.73 1.81 1.95 2.12 2.20 2.25
0.93 1.19 1.33 1.48 1.71 1.65 1.57 1.56 1.66 1.82 1.91 2.03 2.17 2.22 2.15 2.02 1.98 1.92 1.92 1.95 1.95 2.03 2.12 2.27 2.51 2.66 2.87 3.11 3.22 2.93 2.80 2.72 2.46 2.26 2.09 2.18 2.14 1.83 1.66 1.64 1.76 1.97 2.07